W9KHP-1 Weather Reports


Display with metric or nautical units.
time (UTC)temp
F
wind
direction
speed
MPH
gust
MPH
rain 1hr
in
rain 24hr
in
rain mn
in
humidity
%
barometer
mb
20260905195724 102 319 1.0 1.0 0.00 0.00 0.00 52 1013.2
20260905195218 102 330 0.0 1.0 0.00 0.00 0.00 46 1013.0
20260905194714 102 335 0.0 4.0 0.00 0.00 0.00 47 1013.1
20260905194214 102 284 0.0 1.0 0.00 0.00 0.00 49 1013.2
20260905193708 103 10 1.0 2.0 0.00 0.00 0.00 50 1013.3
20260905193203 102 298 1.0 1.0 0.00 0.00 0.00 48 1013.4
20260905192659 100 203 2.0 3.0 0.00 0.00 0.00 49 1013.4
20260905192155 102 188 2.0 3.0 0.00 0.00 0.00 48 1013.7
20260905191654 101 337 0.0 0.0 0.00 0.00 0.00 51 1013.9
20260905191152 100 268 1.0 2.0 0.00 0.00 0.00 51 1013.8
20260905190651 101 308 1.0 2.0 0.00 0.00 0.00 50 1013.8
20260905190150 100 294 0.0 2.0 0.00 0.00 0.00 50 1013.9
20260905185649 100 337 0.0 0.0 0.00 0.00 0.00 50 1014.0
20260905185144 102 39 2.0 2.0 0.00 0.00 0.00 47 1014.0
20260905184643 102 323 2.0 2.0 0.00 0.00 0.00 49 1014.0
20260905184142 101 341 0.0 0.0 0.00 0.00 0.00 50 1014.1
20260905183641 101 328 0.0 4.0 0.00 0.00 0.00 52 1014.2
20260905183137 99 217 1.0 3.0 0.00 0.00 0.00 51 1014.2
20260905182636 100 326 1.0 2.0 0.00 0.00 0.00 52 1014.2
20260905182131 100 331 0.0 0.0 0.00 0.00 0.00 52 1014.5
20260905181626 101 138 1.0 2.0 0.00 0.00 0.00 52 1014.5
20260905181125 101 164 1.0 2.0 0.00 0.00 0.00 54 1014.5
20260905180620 100 108 0.0 2.0 0.00 0.00 0.00 55 1014.5
20260905180116 98 283 3.0 4.0 0.00 0.00 0.00 56 1014.5
20260905175615 99 120 2.0 3.0 0.00 0.00 0.00 53 1014.8
20260905175110 101 156 0.0 2.0 0.00 0.00 0.00 51 1014.7
20260905174606 98 316 0.0 0.0 0.00 0.00 0.00 56 1015.0
20260905174101 99 329 0.0 0.0 0.00 0.00 0.00 57 1014.9
20260905173557 99 317 0.0 0.0 0.00 0.00 0.00 57 1015.1
20260905173053 97 326 0.0 1.0 0.00 0.00 0.00 54 1015.1
20260905172551 99 0 2.0 2.0 0.00 0.00 0.00 58 1015.1
20260905172047 100 345 0.0 2.0 0.00 0.00 0.00 55 1015.1
20260905171543 99 317 0.0 1.0 0.00 0.00 0.00 57 1015.2
20260905171039 98 333 0.0 2.0 0.00 0.00 0.00 60 1015.3
20260905170535 99 214 2.0 4.0 0.00 0.00 0.00 58 1015.4
20260905170030 97 337 0.0 2.0 0.00 0.00 0.00 61 1015.5
20260905165525 97 327 0.0 2.0 0.00 0.00 0.00 61 1015.5
20260905165020 99 316 1.0 1.0 0.00 0.00 0.00 59 1015.6
20260905164519 97 338 1.0 3.0 0.00 0.00 0.00 58 1015.5
20260905164014 97 150 3.0 4.0 0.00 0.00 0.00 61 1015.8
20260905163510 96 40 1.0 2.0 0.00 0.00 0.00 62 1015.8
20260905163006 97 311 0.0 0.0 0.00 0.00 0.00 63 1016.2
20260905162501 97 334 0.0 1.0 0.00 0.00 0.00 61 1016.1
20260905161957 95 353 0.0 1.0 0.00 0.00 0.00 62 1016.3
20260905161456 96 338 1.0 2.0 0.00 0.00 0.00 62 1016.2
20260905160954 94 336 0.0 1.0 0.00 0.00 0.00 66 1016.4
20260905160448 94 333 0.0 1.0 0.00 0.00 0.00 65 1016.3
20260905155947 95 164 2.0 3.0 0.00 0.00 0.00 63 1016.3
20260905155442 94 313 0.0 1.0 0.00 0.00 0.00 67 1016.2
20260905154941 93 284 2.0 2.0 0.00 0.00 0.00 67 1016.3
20260905154436 91 294 1.0 1.0 0.00 0.00 0.00 69 1016.3
20260905153932 92 8 0.0 0.0 0.00 0.00 0.00 72 1016.3
20260905153428 90 326 0.0 0.0 0.00 0.00 0.00 76 1016.3
20260905152927 89 186 1.0 2.0 0.00 0.00 0.00 74 1016.4
20260905152427 89 131 0.0 2.0 0.00 0.00 0.00 75 1016.2
20260905151922 88 4 0.0 0.0 0.00 0.00 0.00 77 1016.4
20260905151413 89 7 0.0 0.0 0.00 0.00 0.00 78 1016.4
20260905150912 89 339 0.0 0.0 0.00 0.00 0.00 75 1016.4
20260905150407 89 321 2.0 2.0 0.00 0.00 0.00 75 1016.4
20260905145903 88 336 0.0 0.0 0.00 0.00 0.00 78 1016.3
20260905145358 87 187 0.0 0.0 0.00 0.00 0.00 80 1016.3
20260905144857 87 343 0.0 0.0 0.00 0.00 0.00 79 1016.4
20260905144353 86 346 0.0 0.0 0.00 0.00 0.00 79 1016.4
20260905143851 86 347 0.0 0.0 0.00 0.00 0.00 80 1016.4
20260905143346 86 318 0.0 0.0 0.00 0.00 0.00 79 1016.6
20260905142840 85 341 0.0 2.0 0.00 0.00 0.00 79 1016.4
20260905142338 85 355 0.0 0.0 0.00 0.00 0.00 82 1016.4
20260905141835 84 137 0.0 0.0 0.00 0.00 0.00 81 1016.5
20260905141330 84 150 0.0 2.0 0.00 0.00 0.00 81 1016.4
20260905140826 84 302 0.0 2.0 0.00 0.00 0.00 83 1016.6
20260905140325 84 178 1.0 1.0 0.00 0.00 0.00 83 1016.7
20260905135824 83 225 1.0 2.0 0.00 0.00 0.00 84 1017.0
20260905135320 83 263 0.0 2.0 0.00 0.00 0.00 85 1017.0
20260905134816 82 336 0.0 0.0 0.00 0.00 0.00 86 1017.1
20260905134314 82 349 0.0 0.0 0.00 0.00 0.00 88 1016.8
20260905133808 82 353 0.0 0.0 0.00 0.00 0.00 89 1016.8
20260905133304 82 353 0.0 0.0 0.00 0.00 0.00 87 1016.8
20260905132803 81 358 0.0 0.0 0.00 0.00 0.00 88 1017.0
20260905132258 81 8 0.0 0.0 0.00 0.00 0.00 90 1016.8
20260905131753 81 8 0.0 0.0 0.00 0.00 0.00 91 1016.8
20260905131248 80 9 0.0 0.0 0.00 0.00 0.00 89 1017.1
20260905130743 80 9 0.0 1.0 0.00 0.00 0.00 90 1017.0
20260905130242 79 9 0.0 0.0 0.00 0.00 0.00 92 1017.1
20260905125738 78 2 0.0 0.0 0.00 0.00 0.00 95 1017.1
20260905125233 77 350 0.0 0.0 0.00 0.00 0.00 96 1017.1
20260905124730 77 350 0.0 0.0 0.00 0.00 0.00 95 1016.8
20260905124225 78 350 0.0 0.0 0.00 0.00 0.00 95 1017.1
20260905123720 78 350 0.0 0.0 0.00 0.00 0.00 95 1016.8
20260905123218 78 350 0.0 0.0 0.00 0.00 0.00 94 1016.7
20260905122717 77 350 0.0 0.0 0.00 0.00 0.00 94 1016.7
20260905122217 77 350 0.0 0.0 0.00 0.00 0.00 94 1016.7
20260905121712 77 350 0.0 0.0 0.00 0.00 0.00 94 1016.7
20260905121208 77 351 0.0 0.0 0.00 0.00 0.00 95 1016.6
20260905120707 77 351 0.0 0.0 0.00 0.00 0.00 95 1016.6
20260905120201 77 351 0.0 0.0 0.00 0.00 0.00 95 1016.8
20260905115655 76 351 0.0 0.0 0.00 0.00 0.00 96 1016.6
20260905115150 76 351 0.0 0.0 0.00 0.00 0.00 96 1016.6
20260905114645 76 352 0.0 0.0 0.00 0.00 0.00 96 1016.6
20260905114143 76 352 0.0 0.0 0.00 0.00 0.00 96 1016.3
20260905113638 76 352 0.0 0.0 0.00 0.00 0.00 97 1016.2
20260905113133 76 352 0.0 0.0 0.00 0.00 0.00 97 1016.2
20260905112627 76 352 0.0 0.0 0.00 0.00 0.00 96 1016.0
20260905112124 77 352 0.0 0.0 0.00 0.00 0.00 97 1016.0
20260905111618 77 352 0.0 0.0 0.00 0.00 0.00 97 1015.9
20260905111117 77 352 0.0 0.0 0.00 0.00 0.00 97 1016.0
20260905110616 77 352 0.0 0.0 0.00 0.00 0.00 96 1015.8
20260905110111 77 352 0.0 0.0 0.00 0.00 0.00 96 1015.8
20260905105606 77 352 0.0 0.0 0.00 0.00 0.00 96 1015.9
20260905105105 77 352 0.0 0.0 0.00 0.00 0.00 96 1015.8
20260905104601 77 352 0.0 0.0 0.00 0.00 0.00 95 1015.5
20260905104101 77 352 0.0 0.0 0.00 0.00 0.00 95 1015.6
20260905103551 77 352 0.0 0.0 0.00 0.00 0.00 95 1015.5
20260905103047 77 352 0.0 0.0 0.00 0.00 0.00 95 1015.6
20260905102542 77 352 0.0 0.0 0.00 0.00 0.00 94 1015.7
20260905102039 77 352 0.0 0.0 0.00 0.00 0.00 94 1015.8
20260905101537 78 352 0.0 0.0 0.00 0.00 0.00 93 1015.5
20260905101035 78 352 0.0 0.0 0.00 0.00 0.00 93 1015.6
20260905100532 78 352 0.0 0.0 0.00 0.00 0.00 92 1015.5
20260905100031 78 352 0.0 0.0 0.00 0.00 0.00 92 1015.5
20260905095526 78 352 0.0 0.0 0.00 0.00 0.00 92 1015.5
20260905095021 78 352 0.0 0.0 0.00 0.00 0.00 92 1015.7
20260905094516 78 352 0.0 0.0 0.00 0.00 0.00 92 1015.6
20260905094015 78 352 0.0 0.0 0.00 0.00 0.00 91 1015.4
20260905093510 78 352 0.0 0.0 0.00 0.00 0.00 92 1015.5
20260905093007 78 16 0.0 0.0 0.00 0.00 0.00 91 1015.6
20260905092501 78 327 0.0 0.0 0.00 0.00 0.00 92 1015.2
20260905091956 78 327 0.0 0.0 0.00 0.00 0.00 91 1015.3
20260905091450 78 327 0.0 0.0 0.00 0.00 0.00 91 1015.3
20260905090950 78 327 0.0 0.0 0.00 0.00 0.00 91 1015.2
20260905090445 78 327 0.0 0.0 0.00 0.00 0.00 91 1015.4
20260905085944 78 326 0.0 0.0 0.00 0.00 0.00 91 1015.1
20260905085444 78 326 0.0 0.0 0.00 0.00 0.00 91 1015.1
20260905084940 78 326 0.0 0.0 0.00 0.00 0.00 92 1014.9
20260905084439 78 326 0.0 0.0 0.00 0.00 0.00 91 1015.2
20260905083934 78 326 0.0 0.0 0.00 0.00 0.00 91 1015.1
20260905083430 78 326 0.0 0.0 0.00 0.00 0.00 90 1015.0
20260905082925 78 326 0.0 0.0 0.00 0.00 0.00 90 1015.2
20260905082421 78 326 0.0 0.0 0.00 0.00 0.00 90 1015.2
20260905081916 78 326 0.0 0.0 0.00 0.00 0.00 90 1015.2
20260905081411 79 326 0.0 0.0 0.00 0.00 0.00 90 1015.1
20260905080910 79 326 0.0 0.0 0.00 0.00 0.00 90 1015.4
20260905080409 79 326 0.0 0.0 0.00 0.00 0.00 89 1015.3
20260905075908 79 326 0.0 0.0 0.00 0.00 0.00 88 1015.4
20260905075403 79 326 0.0 0.0 0.00 0.00 0.00 88 1015.4
20260905074902 80 326 0.0 0.0 0.00 0.00 0.00 87 1015.5
20260905074358 80 326 0.0 0.0 0.00 0.00 0.00 86 1015.2
20260905073854 80 326 0.0 0.0 0.00 0.00 0.00 86 1015.5
20260905073348 80 326 0.0 0.0 0.00 0.00 0.00 85 1015.6
20260905072843 80 326 0.0 0.0 0.00 0.00 0.00 85 1015.5
20260905072339 80 326 0.0 0.0 0.00 0.00 0.00 84 1015.5
20260905071835 81 326 0.0 0.0 0.00 0.00 0.00 84 1015.6
20260905071331 81 326 0.0 0.0 0.00 0.00 0.00 84 1015.7
20260905070826 81 326 0.0 0.0 0.00 0.00 0.00 84 1015.4
20260905070323 81 326 0.0 0.0 0.00 0.00 0.00 83 1015.6
20260905065821 81 326 0.0 0.0 0.00 0.00 0.00 82 1015.7
20260905065320 81 326 0.0 0.0 0.00 0.00 0.00 83 1015.7
20260905064815 81 325 0.0 0.0 0.00 0.00 0.00 83 1015.6
20260905064310 81 326 0.0 0.0 0.00 0.00 0.00 83 1015.5
20260905063808 81 326 0.0 0.0 0.00 0.00 0.00 82 1015.6
20260905063305 82 326 0.0 0.0 0.00 0.00 0.00 82 1015.7
20260905062801 82 326 0.0 0.0 0.00 0.00 0.00 81 1015.8
20260905062255 82 326 0.0 0.0 0.00 0.00 0.00 81 1015.7
20260905061750 82 325 0.0 0.0 0.00 0.00 0.00 81 1016.0
20260905061249 82 324 0.0 0.0 0.00 0.00 0.00 81 1015.8
20260905060744 82 333 0.0 0.0 0.00 0.00 0.00 80 1015.8
20260905060241 83 334 0.0 0.0 0.00 0.00 0.00 79 1015.9
20260905055739 83 346 0.0 0.0 0.00 0.00 0.00 78 1015.8
20260905055235 83 347 0.0 0.0 0.00 0.00 0.00 78 1015.8
20260905054730 83 322 0.0 0.0 0.00 0.00 0.00 78 1015.9
20260905054226 83 344 0.0 0.0 0.00 0.00 0.00 77 1015.8
20260905053725 84 333 0.0 0.0 0.00 0.00 0.00 76 1016.0
20260905053221 84 329 0.0 0.0 0.00 0.00 0.00 77 1016.0
20260905052714 84 337 0.0 0.0 0.00 0.00 0.00 75 1016.1
20260905052209 84 343 0.0 0.0 0.00 0.00 0.00 76 1016.2
20260905051709 83 328 0.0 0.0 0.00 0.00 0.00 77 1015.9
20260905051206 83 333 0.0 0.0 0.00 0.00 0.00 77 1016.0
20260905050702 83 332 0.0 0.0 0.00 0.00 0.00 77 1016.1
20260905050159 83 333 0.0 0.0 0.00 0.00 0.00 78 1016.1
20260905045653 83 334 0.0 0.0 0.00 0.00 0.00 77 1016.0
20260905045148 83 337 0.0 0.0 0.00 0.00 0.00 78 1015.9
20260905044643 84 345 0.0 0.0 0.00 0.00 0.00 77 1016.0
20260905044138 84 344 0.0 0.0 0.00 0.00 0.00 76 1015.9
20260905043636 84 345 0.0 0.0 0.00 0.00 0.00 76 1015.9
20260905043132 84 350 0.0 0.0 0.00 0.00 0.00 74 1015.9
20260905042631 84 326 0.0 0.0 0.00 0.00 0.00 75 1015.9
20260905042126 85 332 0.0 0.0 0.00 0.00 0.00 74 1015.9
20260905041621 84 301 0.0 0.0 0.00 0.00 0.00 74 1015.9
20260905041116 84 335 0.0 0.0 0.00 0.00 0.00 76 1016.0
20260905040611 84 335 0.0 0.0 0.00 0.00 0.00 76 1015.9
20260905040109 84 335 0.0 0.0 0.00 0.00 0.00 77 1016.1
20260905035604 84 335 0.0 0.0 0.00 0.00 0.00 76 1016.1
20260905035101 85 323 0.0 0.0 0.00 0.00 0.00 76 1016.1
20260905034557 86 322 0.0 0.0 0.00 0.00 0.00 73 1016.0
20260905034050 85 325 0.0 0.0 0.00 0.00 0.00 73 1016.1
20260905033544 85 291 0.0 0.0 0.00 0.00 0.00 75 1015.9
20260905033041 85 350 0.0 0.0 0.00 0.00 0.00 78 1016.0
20260905032535 85 296 0.0 0.0 0.00 0.00 0.00 77 1016.0
20260905032030 85 301 0.0 0.0 0.00 0.00 0.00 79 1016.0
20260905031526 85 336 0.0 0.0 0.00 0.00 0.00 79 1016.0
20260905031025 86 54 0.0 0.0 0.00 0.00 0.00 78 1016.1
20260905030520 86 299 0.0 0.0 0.00 0.00 0.00 77 1016.0
20260905030015 85 305 0.0 0.0 0.00 0.00 0.00 77 1016.1
20260905025510 85 1 0.0 0.0 0.00 0.00 0.00 78 1015.9
20260905025006 85 299 0.0 0.0 0.00 0.00 0.00 80 1016.1
20260905024501 85 352 0.0 0.0 0.00 0.00 0.00 81 1016.2
20260905023957 85 352 0.0 0.0 0.00 0.00 0.00 79 1016.1
20260905023451 85 353 0.0 0.0 0.00 0.00 0.00 79 1016.0
20260905022950 85 353 0.0 0.0 0.00 0.00 0.00 81 1016.0
20260905022445 86 353 0.0 0.0 0.00 0.00 0.00 78 1015.9
20260905021941 86 353 0.0 0.0 0.00 0.00 0.00 79 1015.9
20260905021440 86 353 0.0 0.0 0.00 0.00 0.00 78 1016.0
20260905020936 86 1 0.0 0.0 0.00 0.00 0.00 78 1015.7
20260905020435 86 1 0.0 0.0 0.00 0.00 0.00 77 1015.8
20260905015930 86 2 0.0 0.0 0.00 0.00 0.00 77 1015.9
20260905015428 86 332 0.0 0.0 0.00 0.00 0.00 77 1015.7
20260905014927 86 315 0.0 0.0 0.00 0.00 0.00 77 1015.7
20260905014423 87 314 0.0 0.0 0.00 0.00 0.00 76 1015.5
20260905013918 87 347 0.0 0.0 0.00 0.00 0.00 76 1015.6
20260905013415 87 352 0.0 0.0 0.00 0.00 0.00 75 1015.6
20260905012910 87 359 0.0 0.0 0.00 0.00 0.00 75 1015.5
20260905012405 87 351 0.0 0.0 0.00 0.00 0.00 76 1015.4
20260905011902 87 297 0.0 0.0 0.00 0.00 0.00 75 1015.5
20260905011357 86 331 0.0 0.0 0.00 0.00 0.00 76 1015.2
20260905010853 86 343 0.0 0.0 0.00 0.00 0.00 76 1015.4
20260905010347 86 343 0.0 0.0 0.00 0.00 0.00 77 1015.4
20260905005843 86 339 0.0 0.0 0.00 0.00 0.00 77 1015.2
20260905005339 87 304 0.0 0.0 0.00 0.00 0.00 77 1015.3
20260905004834 87 323 0.0 0.0 0.00 0.00 0.00 77 1015.2
20260905004323 87 332 0.0 0.0 0.00 0.00 0.00 75 1015.1
20260905003818 87 332 0.0 0.0 0.00 0.00 0.00 74 1015.0
20260905003315 88 332 0.0 0.0 0.00 0.00 0.00 73 1015.0
20260905002815 89 332 0.0 0.0 0.00 0.00 0.00 72 1015.2
20260905002309 89 342 0.0 0.0 0.00 0.00 0.00 73 1015.1
20260905001804 89 346 0.0 0.0 0.00 0.00 0.00 70 1015.3
20260905001304 88 339 0.0 0.0 0.00 0.00 0.00 71 1015.0
20260905000759 88 344 0.0 0.0 0.00 0.00 0.00 75 1015.0
20260905000255 88 352 0.0 0.0 0.00 0.00 0.00 74 1015.0
20260904235750 88 353 0.0 0.0 0.00 0.00 0.00 74 1015.1
20260904235249 90 318 0.0 0.0 0.00 0.00 0.00 76 1015.0
20260904234744 90 318 0.0 0.0 0.00 0.00 0.00 70 1015.0
20260904234239 91 318 0.0 0.0 0.00 0.00 0.00 67 1015.0
20260904233735 91 318 0.0 0.0 0.00 0.00 0.00 69 1015.0
20260904233231 91 318 0.0 0.0 0.00 0.00 0.00 70 1015.1
20260904232728 91 318 0.0 0.0 0.00 0.00 0.00 72 1015.1
20260904232224 91 318 0.0 0.0 0.00 0.00 0.00 74 1014.7
20260904231720 91 318 0.0 0.0 0.00 0.00 0.00 75 1014.7
20260904231215 91 318 0.0 0.0 0.00 0.00 0.00 76 1014.7
20260904230714 92 318 0.0 0.0 0.00 0.00 0.00 76 1014.7
20260904230204 92 318 0.0 0.0 0.00 0.00 0.00 75 1014.9
20260904225703 94 318 0.0 0.0 0.00 0.00 0.00 71 1014.6
20260904225157 94 318 0.0 0.0 0.00 0.00 0.00 69 1014.8
20260904224656 95 318 0.0 0.0 0.00 0.00 0.00 66 1014.7
20260904224151 96 318 0.0 0.0 0.00 0.00 0.00 63 1014.7
20260904223650 97 318 0.0 0.0 0.00 0.00 0.00 61 1014.4
20260904223146 98 318 0.0 0.0 0.00 0.00 0.00 61 1014.6
20260904222642 99 318 0.0 0.0 0.00 0.00 0.00 60 1014.6
20260904222137 99 320 0.0 0.0 0.00 0.00 0.00 54 1014.5
20260904221636 100 320 0.0 0.0 0.00 0.00 0.00 54 1014.6
20260904221131 99 320 0.0 0.0 0.00 0.00 0.00 52 1014.7
20260904220626 99 315 0.0 0.0 0.00 0.00 0.00 55 1014.5
20260904220121 100 322 0.0 0.0 0.00 0.00 0.00 55 1014.6
20260904215616 102 321 0.0 0.0 0.00 0.00 0.00 52 1014.6
20260904215112 101 316 0.0 0.0 0.00 0.00 0.00 54 1014.7
20260904214607 101 326 0.0 0.0 0.00 0.00 0.00 51 1014.8
20260904214102 101 315 0.0 0.0 0.00 0.00 0.00 50 1014.6
20260904213600 101 337 0.0 0.0 0.00 0.00 0.00 49 1014.6
20260904213057 102 340 0.0 0.0 0.00 0.00 0.00 49 1014.7
20260904212557 101 317 0.0 1.0 0.00 0.00 0.00 49 1014.7
20260904212052 102 335 0.0 0.0 0.00 0.00 0.00 49 1014.6
20260904211551 103 303 0.0 0.0 0.00 0.00 0.00 44 1015.0
20260904211047 104 315 0.0 0.0 0.00 0.00 0.00 47 1015.0
20260904210546 104 323 0.0 0.0 0.00 0.00 0.00 43 1015.0
20260904210043 103 323 0.0 0.0 0.00 0.00 0.00 47 1015.2
20260904205543 102 315 0.0 0.0 0.00 0.00 0.00 47 1015.2
20260904205039 103 301 0.0 0.0 0.00 0.00 0.00 50 1015.5
20260904204535 105 301 0.0 1.0 0.00 0.00 0.00 47 1015.2
20260904204031 103 301 0.0 0.0 0.00 0.00 0.00 46 1015.3
20260904203527 103 298 0.0 2.0 0.00 0.00 0.00 44 1015.5
20260904203023 103 327 0.0 1.0 0.00 0.00 0.00 46 1015.4
20260904202519 102 328 0.0 1.0 0.00 0.00 0.00 50 1015.4
20260904202015 102 303 0.0 1.0 0.00 0.00 0.00 49 1015.8
20260904201510 102 320 0.0 1.0 0.00 0.00 0.00 46 1015.7
20260904201005 103 337 0.0 1.0 0.00 0.00 0.00 49 1015.8
20260904200503 102 346 0.0 0.0 0.00 0.00 0.00 47 1015.8